Change the Weather History Date:

Friday, September 9, 2011

  Actual Average Record
Temperature  
Mean Temperature 68 °F -  
Max Temperature 73 °F 70 °F 82 °F (2007)
Min Temperature 62 °F 57 °F 46 °F (1990)
Cooling Degree Days 2    
Growing Degree Days 18 (Base 50)    
Moisture  
Dew Point 60 °F    
Average Humidity 83    
Maximum Humidity 96    
Minimum Humidity 50    
Precipitation  
Precipitation 0.01 in - - ()
Sea Level Pressure  
Sea Level Pressure 29.79 in    
Wind  
Wind Speed 7 mph (North)    
Max Wind Speed 10 mph    
Max Gust Speed 21 mph    
Visibility 7 miles    
Events Fog    
Averages and records for this station are not official NWS values.
T = Trace of Precipitation, MM = Missing Value Source: NWS Daily Summary

Daily Weather History Graph

Daily Weather History Graph

Search for Another Location

Airport or City:

Trip Planner

Search our weather history database for the weather conditions in past years. The results will help you decide how hot, cold, wet, or windy it might be!

Date:

Astronomy

Sep. 09, 2011 Rise Set
Actual Time 6:13 AM EDT 7:00 PM EDT
Civil Twilight 5:45 AM EDT 7:28 PM EDT
Nautical Twilight 5:12 AM EDT 8:01 PM EDT
Astronomical Twilight 4:37 AM EDT 8:36 PM EDT
Moon 5:25 PM EDT (9/9) 3:28 AM EDT (9/9)
Length of Visible Light 13h 42m
Length of Day
12h 46m
Waxing Gibbous, 93% of the Moon is Illuminated
Sep 9
Waxing Gibbous
Sep 12
Full
Sep 20
Last Quarter
Sep 27
New
Oct 3
First Quarter

Hourly Weather History & Observations

Time (EDT) Temp. Dew Point Humidity Pressure Visibility Wind Dir Wind Speed Gust Speed Precip Events Conditions
1:43 AM 62.6 °F 60.8 °F 94% 29.90 in 0.2 mi Variable 6.9 mph - N/A Fog Fog
1:52 AM 63.0 °F 61.0 °F 93% 29.91 in 0.2 mi NNE 6.9 mph - N/A Fog Fog
2:00 AM 62.6 °F 60.8 °F 94% 29.90 in 0.5 mi Variable 6.9 mph - N/A Fog Fog
2:52 AM 62.1 °F 61.0 °F 96% 29.87 in 1.2 mi NNE 8.1 mph - N/A   Overcast
3:52 AM 63.0 °F 61.0 °F 93% 29.84 in 6.0 mi NNE 8.1 mph - N/A   Overcast
4:02 AM 62.6 °F 60.8 °F 94% 29.84 in 1.8 mi NNE 8.1 mph - N/A   Overcast
4:21 AM 62.6 °F 60.8 °F 94% 29.84 in 0.8 mi NNE 8.1 mph - 0.01 in   Overcast
4:52 AM 62.1 °F 61.0 °F 96% 29.82 in 0.5 mi NNE 9.2 mph - 0.01 in Fog Fog
5:52 AM 62.1 °F 60.1 °F 93% 29.80 in 0.5 mi Variable 5.8 mph - N/A Fog Fog
6:32 AM 62.6 °F 60.8 °F 94% 29.78 in 1.0 mi NNE 8.1 mph - N/A   Overcast
6:47 AM 62.6 °F 60.8 °F 94% 29.78 in 3.0 mi North 8.1 mph - N/A   Overcast
6:48 AM 62.1 °F 60.1 °F 93% 29.78 in 3.0 mi North 9.2 mph - N/A   Overcast
7:52 AM 62.1 °F 60.1 °F 93% 29.76 in 10.0 mi North 8.1 mph - N/A   Overcast
8:23 AM 62.6 °F 60.8 °F 94% 29.76 in 10.0 mi NNE 9.2 mph 20.7 mph N/A   Mostly Cloudy
8:37 AM 62.6 °F 60.8 °F 94% 29.76 in 10.0 mi NNE 10.4 mph 18.4 mph N/A   Scattered Clouds
8:52 AM 63.0 °F 60.1 °F 90% 29.77 in 10.0 mi Variable 5.8 mph 17.3 mph N/A   Partly Cloudy
10:52 AM 66.9 °F 61.0 °F 81% 29.76 in 10.0 mi Variable 6.9 mph 16.1 mph N/A   Scattered Clouds
11:15 AM 66.2 °F 60.8 °F 83% 29.75 in 10.0 mi North 6.9 mph - N/A   Mostly Cloudy
11:52 AM 68.0 °F 61.0 °F 78% 29.76 in 10.0 mi NNW 10.4 mph 17.3 mph N/A   Mostly Cloudy
12:05 PM 68.0 °F 60.8 °F 78% 29.75 in 10.0 mi NNW 10.4 mph 16.1 mph N/A   Mostly Cloudy
12:24 PM 69.8 °F 62.6 °F 78% 29.74 in 10.0 mi NNW 8.1 mph 18.4 mph N/A   Scattered Clouds
12:52 PM 73.0 °F 62.1 °F 68% 29.74 in 10.0 mi Variable 4.6 mph - N/A   Clear
1:52 PM 71.1 °F 60.1 °F 68% 29.74 in 10.0 mi NNW 10.4 mph 17.3 mph N/A   Clear
2:52 PM 70.0 °F 59.0 °F 68% 29.73 in 10.0 mi Variable 6.9 mph - N/A   Clear
3:52 PM 72.0 °F 55.9 °F 57% 29.75 in 10.0 mi NNW 9.2 mph - N/A   Clear
4:52 PM 73.9 °F 54.0 °F 50% 29.75 in 10.0 mi Variable 5.8 mph - N/A   Clear
5:52 PM 71.1 °F 55.0 °F 57% 29.76 in 10.0 mi Variable 3.5 mph - N/A   Clear
6:52 PM 66.9 °F 55.9 °F 68% 29.76 in 10.0 mi WSW 4.6 mph - N/A   Clear
7:52 PM 66.0 °F 57.9 °F 75% 29.78 in 10.0 mi West 3.5 mph - N/A   Clear
8:52 PM 66.0 °F 61.0 °F 84% 29.81 in 10.0 mi WSW 4.6 mph - N/A   Clear
9:52 PM 66.9 °F 63.0 °F 87% 29.81 in 10.0 mi Variable 4.6 mph - N/A   Clear
10:52 PM 66.0 °F 63.0 °F 90% 29.83 in 10.0 mi West 4.6 mph - N/A   Clear
11:52 PM 66.0 °F 61.0 °F 84% 29.83 in 10.0 mi WNW 4.6 mph - N/A   Clear